Regional Weather Roundup
Issued by NWS

Home | Current Version | Previous Version | Graphics & Text | Print | Product List | Glossary On
Versions: 1 2 3 4 5 6 7 8 9 10 11 12 13 14 15 16 17 18 19 20 21 22 23 24 25 26 27 28 29 30 31 32 33 34 35 36 37 38 39 40 41 42 43 44 45 46 47 48 49 50
000
ASUS43 KLSX 181359
RWRMO

WEATHER SUMMARY FOR MISSOURI
NATIONAL WEATHER SERVICE SPRINGFIELD MO
800 AM CST THU DEC 18 2014

NOTE: "FAIR" INDICATES FEW OR NO CLOUDS BELOW 12,000 FEET WITH NO
       SIGNIFICANT WEATHER AND/OR OBSTRUCTIONS TO VISIBILITY.
       CURRENT SKY AND/OR WEATHER CONDITIONS ARE NOT AVAILABLE FOR
       CHILLICOTHE AND FARMINGTON.

MOZ001>031-035>038-043-044-053-054-181500-
...NORTHERN AND WESTERN MISSOURI...

CITY           SKY/WX    TMP DP  RH WIND       PRES   REMARKS
KANSAS CTY INT LGT SNOW  28  26  92 E8        30.22R FOG     WCI  20
KANSAS C DTWN  LGT SNOW  30  27  88 E6        30.23R FOG     WCI  24
LEE`S SUMMIT   LGT SNOW  29  27  92 E9        30.21S FOG     WCI  20
ST JOSEPH      LGT SNOW  28  26  92 E5        30.25R FOG     WCI  23
CHILLICOTHE      N/A     27  24  89 E5        30.27S WCI  22
KIRKSVILLE     LGT SNOW  25  24  96 E6        30.28R VSB 3/4 WCI  18

$$
MOZ066>068-077>081-088>096-101>105-181500-
...SOUTHWEST MISSOURI...

CITY           SKY/WX    TMP DP  RH WIND       PRES   REMARKS
SPRINGFIELD    CLOUDY    34  32  92 SE7       30.17S FOG     WCI  28
JOPLIN         CLOUDY    36  34  92 E3        30.19R

$$
MOZ032>034-039>042-045>050-055>058-069>072-181500-
...CENTRAL MISSOURI...

CITY           SKY/WX    TMP DP  RH WIND       PRES   REMARKS
COLUMBIA       LGT SNOW  28  27  96 E7        30.25R VSB 1   WCI  21
JEFFERSON CITY LGT SNOW  30  28  92 E3        30.27R FOG
ROLLA          LGT SNOW  30  28  92 E7        30.21R FOG     WCI  23
SEDALIA        LGT SNOW  31  29  92 E9        30.22F VSB 1   WCI  23
WARRENSBURG    LGT SNOW  30  28  93 NE6       30.22S WCI  24
OSAGE BEACH    CLOUDY    30  28  93 E7        30.22S WCI  23

$$
MOZ051-052-059>065-181500-
...EAST CENTRAL MISSOURI...

CITY           SKY/WX    TMP DP  RH WIND       PRES   REMARKS
ST LOUIS INTL  LGT SNOW  30  24  78 NE3       30.30R
SPIRIT OF STL  LGT SNOW  29  27  92 E5        30.29S VSB 3/4 WCI  24
ST CHARLES     CLOUDY    29  24  82 NE5       30.31R WCI  24

$$
MOZ072>076-082>087-097>100-106>115-181500-
...SOUTH CENTRAL AND SOUTHEAST MISSOURI...

CITY           SKY/WX    TMP DP  RH WIND       PRES   REMARKS
CAPE GIRARDEAU CLOUDY    33  32  96 E5        30.29R FOG     WCI  29
FARMINGTON     CLOUDY    32  32 100 N5        30.27S WCI  27
POPLAR BLUFF   CLOUDY    34  32  92 NE6       30.26S FOG     WCI  29
WEST PLAINS    CLOUDY    33  31  92 E3        30.22S FOG

$$



USA.gov is the U.S. government's official web portal to all federal, state and local government web resources and services.